Aneta, ND

5:17 AM CST on February 11, 2016 (GMT -0600)
Larimore | | Change Station
CLOSE
Current Station
Personal Weather Station
Location: Larimore, ND
Elevation: 1125 ft
Nearby Weather Stations

Elev 1125 ft 47.91 °N, 97.63 °W | Updated 5 seconds ago

Overcast
Overcast
1.9 °F
Feels Like 2 °F
N
1.7
Wind Variable Wind from South

Today
High -- | Low -- °F
--% Chance of Precip.
Yesterday
High -- | Low -- °F
Precip. -- in
Pressure 30.37 in
Visibility 10.0 miles
Clouds Overcast 4400 ft
Windchill 2 °F
Dew Point -2 °F
Humidity 85%
Rainfall 0.00 in
Snow Depth Not available.
7:44 AM 5:47 PM
Waxing Crescent, 11% visible
METAR KRDR 111058Z AUTO 17003KT 10SM OVC044 M16/M19 A3028 RMK AO2 SLP282 T11601188
Pressure 30.37 in
Visibility 10.0 miles
Clouds Overcast 4400 ft
Windchill 2 °F
Dew Point -2 °F
Humidity 85%
Rainfall 0.00 in
Snow Depth Not available.
7:44 AM 5:47 PM
Waxing Crescent, 11% visible
METAR KRDR 111058Z AUTO 17003KT 10SM OVC044 M16/M19 A3028 RMK AO2 SLP282 T11601188

10-Day Weather Forecast

Almanac

Astronomy

Feb. 11, 2016 Rise Set
Actual Time
Civil Twilight
Nautical Twilight
Astronomical Twilight
Moon
Length of Visible Light
Length of Day
Tomorrow will be .
, % of the Moon is Illuminated

Today's Extremes

State Highs State Lows

Community

WunderPhotos

Upload Photos

1,892,030 photos uploaded!

WunderBlog® & News

Nearby

Air Quality

  Air Quality AQ Index Pollutant
Not available.

Snow Depth

Station Depth Elevation

Earthquake Activity

City Distance Mag. Time & Date
Minimum magnitude displayed is 2.5.

Coastal Water Temperatures

Place Temperature

Stations

Nearby Weather Stations

Station Location Temp. Windchill Dew Point Humidity Wind Precip. Elev Updated Type
                   

Watches & Warnings

There are currently no watches in effect.